Tracking 19177 objects as of 24-May-2018
HD Live streaming from Space Station
objects crossing your sky now

NOAA 16 DEB

Track NOAA 16 DEB now!
10-day predictions


NORAD ID: 41349
Int'l Code: 2000-055HS
Perigee: 794.2 km
Apogee: 857.9 km
Inclination: 98.9 °
Period: 101.3 minutes
Semi major axis: 7197 km
RCS: Unknown
Launch date: September 21, 2000
Source: United States (US)
Launch site: AIR FORCE WESTERN TEST RANGE (AFWTR)

Note: This is SATELLITE DEBRIS
aabbcc
Your satellite tracking list
Your tracking list is empty




NASA's NSSDC Master Catalog

Two Line Element Set (TLE):
1 41349U 00055HS  18143.06316284  .00000766  00000-0  36398-3 0  9999
2 41349  98.8922 232.9215 0044240  47.6986 312.7927 14.21914395122105
Source of the keplerian elements: AFSPC